Regional Weather Roundup
Issued by NWS

Home | Current Version | Previous Version | Text Only | Print | Product List | Glossary Off
Versions: 1 2 3 4 5 6 7 8 9 10 11 12 13 14 15 16 17 18 19 20 21 22 23 24 25 26 27 28 29 30 31 32 33 34 35 36 37 38 39 40 41 42 43 44 45 46 47 48 49 50

000
ASUS43 KLSX 180607
RWRMO

WEATHER SUMMARY FOR MISSOURI
NATIONAL WEATHER SERVICE SPRINGFIELD MO
100 AM CDT SAT APR 18 2015

NOTE: "FAIR" INDICATES FEW OR NO CLOUDS BELOW 12,000 FEET WITH NO
       SIGNIFICANT WEATHER AND/OR OBSTRUCTIONS TO VISIBILITY.
       CURRENT SKY AND/OR WEATHER CONDITIONS ARE NOT AVAILABLE FOR
       CHILLICOTHE AND FARMINGTON.

MOZ001>031-035>038-043-044-053-054-180700-
...NORTHERN AND WESTERN MISSOURI...

CITY           SKY/WX    TMP DP  RH WIND       PRES   REMARKS
KANSAS CTY INT CLOUDY    64  57  78 E8        29.97F
6HR MIN TEMP:  62; 6HR MAX TEMP:  70; 6HR PCP:  0.01;

KANSAS C DTWN  FAIR      65  58  78 NE3       29.96F
6HR MIN TEMP:  63; 6HR MAX TEMP:  75;

LEE`S SUMMIT   FAIR      64  57  78 CALM      29.97F
6HR MIN TEMP:  63; 6HR MAX TEMP:  75;

ST JOSEPH      FAIR      61  56  83 CALM      29.98S
6HR MIN TEMP:  59; 6HR MAX TEMP:  74;

CHILLICOTHE      N/A     67  58  72 SW10G18   30.02R
6HR MIN TEMP:  62; 6HR MAX TEMP:  76;

KIRKSVILLE     FAIR      64  55  72 SE6       30.01F
6HR MIN TEMP:  62; 6HR MAX TEMP:  74;


$$
MOZ066>068-077>081-088>096-101>105-180700-
...SOUTHWEST MISSOURI...

CITY           SKY/WX    TMP DP  RH WIND       PRES   REMARKS
SPRINGFIELD    FAIR      65  59  81 SE9       29.99S
6HR MIN TEMP:  64; 6HR MAX TEMP:  73;

JOPLIN         FAIR      63  60  90 SE5       29.97R
6HR MIN TEMP:  62; 6HR MAX TEMP:  73;


$$
MOZ032>034-039>042-045>050-055>058-069>072-180700-
...CENTRAL MISSOURI...

CITY           SKY/WX    TMP DP  RH WIND       PRES   REMARKS
COLUMBIA       FAIR      66  56  70 E7        29.99F
6HR MIN TEMP:  66; 6HR MAX TEMP:  76;

JEFFERSON CITY FAIR      67  57  70 E6        29.99S
6HR MIN TEMP:  66; 6HR MAX TEMP:  78;

ROLLA          FAIR      65  55  70 SE10      30.01R
6HR MIN TEMP:  64; 6HR MAX TEMP:  75; 6HR PCP: TRACE;

SEDALIA        FAIR      66  55  67 E3        29.98F
6HR MIN TEMP:  66; 6HR MAX TEMP:  76;

WHITEMAN AFB   FAIR      65  55  70 SE2       29.96F
WARRENSBURG    FAIR      63  57  82 NE5       29.96F
OSAGE BEACH    FAIR      64  54  68 SE5       29.99S

$$
MOZ051-052-059>065-180700-
...EAST CENTRAL MISSOURI...

CITY           SKY/WX    TMP DP  RH WIND       PRES   REMARKS
ST LOUIS INTL  FAIR      66  55  67 S3        30.03R
6HR MIN TEMP:  64; 6HR MAX TEMP:  75;

SPIRIT OF STL  FAIR      59  55  87 CALM      30.01S
6HR MIN TEMP:  58; 6HR MAX TEMP:  74;

ST CHARLES     FAIR      61  54  77 CALM      30.01S
6HR MIN TEMP:  58; 6HR MAX TEMP:  74;


$$
MOZ072>076-082>087-097>100-106>115-180700-
...SOUTH CENTRAL AND SOUTHEAST MISSOURI...

CITY           SKY/WX    TMP DP  RH WIND       PRES   REMARKS
CAPE GIRARDEAU FAIR      59  58  96 CALM      30.01F FOG
6HR MIN TEMP:  58; 6HR MAX TEMP:  72;

FARMINGTON     FAIR      61  55  82 S3        30.06S
6HR MIN TEMP:  61; 6HR MAX TEMP:  73;

POPLAR BLUFF   FAIR      59  57  93 CALM      30.01R FOG
6HR MIN TEMP:  58; 6HR MAX TEMP:  70;

WEST PLAINS    MOCLDY    63  59  87 CALM      30.04S
6HR MIN TEMP:  61; 6HR MAX TEMP:  73;


$$


USA.gov is the U.S. government's official web portal to all federal, state and local government web resources and services.